Location: Gloden
(48.4833°N, 15.3167°E)
Time: 01:23:55
(UTC+00:00)

Cosmos 1844 - Pass Details

Date: 15 December 2019
Orbit: 824 x 866 km, 70.9° (Epoch: 28 January)

Event Time Altitude Azimuth Distance (km) Brightness Sun altitude
Rises 05:58:39 0° 232° (SW) 3,440 6.6 -7.2°
Reaches altitude 10° 06:01:16 10° 240° (WSW) 2,505 5.9 -6.8°
Maximum altitude 06:06:39 39° 308° (NW) 1,270 4.2 -6.0°
Drops below altitude 10° 06:12:02 10° 17° (NNE) 2,503 6.0 -5.2°
Sets 06:14:40 0° 26° (NNE) 3,437 6.8 -4.9°
